This demonstration page uses our WeatherBlox Daily Observations layout. Learn more.

Left ArrowRight Arrow

40.97296, -117.73568

Hourly Observations for March 8, 2021

Temp ( °F °C ) Dew Point ( °F °C ) Humidity (%) Winds ( mph kmh ) Pressure ( in mb ) Visibility ( mi km ) Precip ( " mm )
12:56 am 00:56 Clear 29 -1.7 19 -7.2 66 66 Calm 29.87 1012 10 16 0.00 0.00
1:56 am 01:56 Partly Cloudy 26 -3.3 18 -7.8 71 71 SE 6 9 29.88 1012 10 16 0.00 0.00
2:56 am 02:56 Clear 26 -3.3 18 -7.8 71 71 S 9 15 29.87 1012 10 16 0.00 0.00
3:56 am 03:56 Clear 24 -4.4 18 -7.8 77 77 SW 3 6 29.88 1012 10 16 0.00 0.00
4:56 am 04:56 Clear 26 -3.3 19 -7.2 75 75 SSE 5 7 29.90 1013 10 16 0.00 0.00
5:56 am 05:56 Mostly Cloudy 25 -3.9 19 -7.2 78 78 SSW 3 6 29.92 1013 10 16 0.00 0.00
6:56 am 06:56 Mostly Sunny 25 -3.9 19 -7.2 78 78 SSE 5 7 29.96 1014 10 16 0.00 0.00
7:56 am 07:56 Sunny 35 1.7 24 -4.4 64 64 SE 3 6 29.94 1014 10 16 0.00 0.00
8:56 am 08:56 Sunny 44 6.7 25 -3.9 47 47 VRB 3 6 29.91 1013 10 16 0.00 0.00
9:56 am 09:56 Mostly Sunny 50 10 23 -5 35 35 SSE 5 7 29.91 1013 10 16 0.00 0.00
10:56 am 10:56 Mostly Cloudy 53 11.7 23 -5 31 31 SW 10 17 29.89 1012 10 16 0.00 0.00
11:56 am 11:56 Cloudy with Light Rain 50 10 26 -3.3 39 39 W 24 39 29.92 1013 10 16 0.00 0.00
12:56 pm 12:56 Cloudy 48 8.9 23 -5 37 37 WNW 18 30 29.93 1014 10 16 0.01 0.25
1:56 pm 13:56 Cloudy 47 8.3 17 -8.3 30 30 WNW 22 35 29.93 1014 10 16 0.01 0.25
2:56 pm 14:56 Cloudy 47 8.3 16 -8.9 29 29 WSW 21 33 29.95 1014 10 16 0.00 0.00
3:56 pm 15:56 Cloudy 47 8.3 11 -11.7 23 23 W 21 33 29.94 1014 10 16 0.00 0.00
4:56 pm 16:56 Cloudy 46 7.8 1 -17.2 15 15 W 21 33 29.96 1015 10 16 0.00 0.00
5:56 pm 17:56 Cloudy 41 5 -3 -19.4 15 15 W 12 19 30.01 1016 10 16 0.00 0.00
6:56 pm 18:56 Cloudy 37 2.8 0 -17.8 20 20 WSW 10 17 30.04 1017 10 16 0.00 0.00
7:56 pm 19:56 Clear 31 -0.6 2 -16.7 29 29 SW 8 13 30.04 1017 10 16 0.00 0.00
8:56 pm 20:56 Clear 29 -1.7 3 -16.1 33 33 W 8 13 30.03 1017 10 16 0.00 0.00
9:56 pm 21:56 Clear 33 0.6 5 -15 30 30 N 3 6 30.04 1017 10 16 0.00 0.00
10:56 pm 22:56 Clear 30 -1.1 5 -15 34 34 NNW 5 7 30.06 1018 10 16 0.00 0.00
11:56 pm 23:56 Clear 29 -1.7 6 -14.4 38 38 WSW 5 7 30.07 1018 10 16 0.00 0.00

Powered by AerisWeather